When you browse on this site, cookies collect data to enhance your experience and personalize the content and advertising you see.
Visit our Privacy Policy to learn more. By continuing to use the site, you agree to this use of cookies and data.
  • In Czech Republic
  • List of Countries
  • For 7 days
  • Water Temperature
  • Satellite Maps
  • Weather Map
  • Weather Widgets
  • user-avatar
    Login

    Hourly Weather Kryukovo

    Today, 24 January, Thursday

    Time Temperature Precipitation Wind Pressure Humidity
    00:00 -17°C° 0 mm 3 mps 747 mmHg 96%
    01:00 -17°C° 0 mm 3 mps 747 mmHg 96%
    02:00 -17°C° 0 mm 3 mps 747 mmHg 96%
    03:00 -16°C° 0 mm 2 mps 747 mmHg 96%
    04:00 -16°C° 0 mm 2 mps 747 mmHg 96%
    05:00 -17°C° 0 mm 2 mps 746 mmHg 96%
    06:00 -17°C° 0 mm 2 mps 746 mmHg 96%
    07:00 -18°C° 0 mm 2 mps 746 mmHg 96%
    08:00 -18°C° 0 mm 2 mps 746 mmHg 96%
    09:00 -17°C° 0 mm 2 mps 746 mmHg 95%
    10:00 -16°C° 0 mm 3 mps 746 mmHg 94%
    11:00 -15°C° 0 mm 3 mps 746 mmHg 92%
    12:00 -14°C° 0.2 mm 3 mps 746 mmHg 92%
    13:00 -13°C° 0.2 mm 3 mps 746 mmHg 91%
    14:00 -12°C° 0.2 mm 3 mps 746 mmHg 91%
    15:00 -12°C° 0 mm 3 mps 746 mmHg 92%
    16:00 -12°C° 0 mm 2 mps 747 mmHg 92%
    17:00 -12°C° 0 mm 2 mps 748 mmHg 93%
    18:00 -13°C° 0 mm 2 mps 748 mmHg 94%
    19:00 -14°C° 0 mm 2 mps 749 mmHg 95%
    20:00 -16°C° 0 mm 2 mps 749 mmHg 96%
    21:00 -17°C° 0 mm 2 mps 750 mmHg 97%
    22:00 -18°C° 0 mm 2 mps 750 mmHg 97%
    23:00 -19°C° 0 mm 2 mps 751 mmHg 97%

    Tomorrow, 25 January, Friday

    Time Temperature Precipitation Wind Pressure Humidity
    00:00 -18°C° 0 mm 1 mps 751 mmHg 97%
    01:00 -18°C° 0 mm 1 mps 752 mmHg 97%
    02:00 -19°C° 0 mm 1 mps 752 mmHg 97%
    03:00 -19°C° 0 mm 1 mps 753 mmHg 97%
    04:00 -19°C° 0 mm 1 mps 753 mmHg 96%
    05:00 -20°C° 0 mm 1 mps 753 mmHg 96%
    06:00 -20°C° 0 mm 1 mps 754 mmHg 96%
    07:00 -20°C° 0 mm 0 mps 754 mmHg 96%
    08:00 -20°C° 0 mm 0 mps 754 mmHg 95%
    09:00 -18°C° 0 mm 0 mps 755 mmHg 93%
    10:00 -16°C° 0 mm 0 mps 755 mmHg 90%
    11:00 -15°C° 0 mm 0 mps 755 mmHg 88%
    12:00 -14°C° 0 mm 0 mps 755 mmHg 89%
    13:00 -14°C° 0 mm 0 mps 755 mmHg 90%
    14:00 -13°C° 0 mm 1 mps 755 mmHg 90%
    15:00 -14°C° 0 mm 1 mps 755 mmHg 91%
    16:00 -16°C° 0 mm 1 mps 755 mmHg 92%
    17:00 -17°C° 0 mm 1 mps 755 mmHg 92%
    18:00 -17°C° 0 mm 1 mps 755 mmHg 92%
    19:00 -17°C° 0 mm 1 mps 755 mmHg 92%
    20:00 -17°C° 0 mm 1 mps 755 mmHg 92%
    21:00 -18°C° 0 mm 2 mps 754 mmHg 92%
    22:00 -18°C° 0 mm 2 mps 754 mmHg 92%
    23:00 -18°C° 0 mm 2 mps 754 mmHg 92%

    Day after tomorrow, 26 January, Saturday

    Time Temperature Precipitation Wind Pressure Humidity
    00:00 -18°C° 0 mm 2 mps 753 mmHg 92%
    01:00 -18°C° 0 mm 2 mps 753 mmHg 92%
    02:00 -18°C° 0 mm 2 mps 753 mmHg 91%
    03:00 -17°C° 0 mm 2 mps 752 mmHg 91%
    04:00 -18°C° 0 mm 3 mps 751 mmHg 90%
    05:00 -18°C° 0 mm 3 mps 750 mmHg 90%
    06:00 -18°C° 0 mm 3 mps 749 mmHg 89%
    07:00 -18°C° 0 mm 3 mps 749 mmHg 89%
    08:00 -19°C° 0 mm 4 mps 748 mmHg 88%
    09:00 -19°C° 0.1 mm 4 mps 747 mmHg 89%
    10:00 -18°C° 0.1 mm 4 mps 746 mmHg 90%
    11:00 -18°C° 0.1 mm 4 mps 746 mmHg 92%
    12:00 -18°C° 0.4 mm 4 mps 745 mmHg 92%
    13:00 -17°C° 0.4 mm 4 mps 744 mmHg 92%
    14:00 -17°C° 0.4 mm 4 mps 743 mmHg 93%
    15:00 -17°C° 0.4 mm 4 mps 742 mmHg 94%
    16:00 -16°C° 0.4 mm 3 mps 741 mmHg 94%
    17:00 -16°C° 0.4 mm 3 mps 740 mmHg 95%
    18:00 -16°C° 0.4 mm 3 mps 740 mmHg 95%
    19:00 -15°C° 0.4 mm 3 mps 739 mmHg 95%
    20:00 -15°C° 0.4 mm 3 mps 739 mmHg 95%
    21:00 -14°C° 0.4 mm 2 mps 738 mmHg 96%
    22:00 -14°C° 0.4 mm 2 mps 738 mmHg 96%
    23:00 -11°C° 0.4 mm 1 mps 737 mmHg 97%

    27 January, Sunday

    Time Temperature Precipitation Wind Pressure Humidity
    00:00 -11°C° 0.2 mm 1 mps 737 mmHg 97%
    01:00 -11°C° 0.2 mm 1 mps 737 mmHg 97%
    02:00 -12°C° 0.2 mm 0 mps 736 mmHg 97%
    03:00 -12°C° 0 mm 1 mps 736 mmHg 97%
    04:00 -13°C° 0 mm 1 mps 736 mmHg 97%
    05:00 -13°C° 0 mm 1 mps 735 mmHg 97%
    06:00 -13°C° 0.1 mm 1 mps 735 mmHg 97%
    07:00 -14°C° 0.1 mm 1 mps 735 mmHg 97%
    08:00 -16°C° 0.1 mm 2 mps 735 mmHg 96%
    09:00 -15°C° 0.1 mm 2 mps 736 mmHg 96%
    10:00 -15°C° 0.1 mm 2 mps 736 mmHg 95%
    11:00 -14°C° 0.1 mm 2 mps 736 mmHg 94%
    12:00 -14°C° 0 mm 2 mps 736 mmHg 94%
    13:00 -15°C° 0 mm 3 mps 736 mmHg 93%
    14:00 -15°C° 0 mm 3 mps 736 mmHg 93%
    15:00 -16°C° 0 mm 3 mps 736 mmHg 93%
    16:00 -17°C° 0 mm 3 mps 736 mmHg 94%
    17:00 -18°C° 0 mm 3 mps 736 mmHg 94%
    18:00 -18°C° 0 mm 3 mps 737 mmHg 94%
    19:00 -18°C° 0 mm 3 mps 737 mmHg 94%
    20:00 -18°C° 0 mm 3 mps 737 mmHg 94%
    21:00 -18°C° 0 mm 3 mps 737 mmHg 95%
    22:00 -18°C° 0 mm 3 mps 738 mmHg 95%
    23:00 -17°C° 0 mm 3 mps 738 mmHg 95%

    28 January, Monday

    Time Temperature Precipitation Wind Pressure Humidity
    00:00 -18°C° 0 mm 3 mps 738 mmHg 95%
    01:00 -18°C° 0 mm 3 mps 739 mmHg 95%
    02:00 -18°C° 0 mm 3 mps 739 mmHg 95%
    03:00 -18°C° 0 mm 3 mps 739 mmHg 96%
    04:00 -18°C° 0 mm 2 mps 740 mmHg 96%
    05:00 -18°C° 0 mm 2 mps 740 mmHg 96%
    06:00 -18°C° 0 mm 2 mps 740 mmHg 97%
    07:00 -18°C° 0 mm 2 mps 741 mmHg 97%
    08:00 -18°C° 0 mm 2 mps 741 mmHg 97%
    09:00 -15°C° 0 mm 1 mps 742 mmHg 96%
    10:00 -14°C° 0 mm 1 mps 742 mmHg 94%
    11:00 -13°C° 0 mm 1 mps 742 mmHg 93%
    12:00 -12°C° 0 mm 1 mps 742 mmHg 93%
    13:00 -12°C° 0 mm 1 mps 742 mmHg 93%
    14:00 -12°C° 0 mm 0 mps 742 mmHg 92%
    15:00 -13°C° 0 mm 1 mps 742 mmHg 94%
    16:00 -14°C° 0 mm 1 mps 742 mmHg 96%
    17:00 -15°C° 0 mm 1 mps 742 mmHg 97%
    18:00 -17°C° 0 mm 2 mps 742 mmHg 97%
    19:00 -17°C° 0 mm 2 mps 742 mmHg 97%
    20:00 -17°C° 0 mm 2 mps 742 mmHg 96%
    21:00 -17°C° 0.1 mm 3 mps 742 mmHg 95%
    22:00 -17°C° 0.1 mm 3 mps 742 mmHg 95%
    23:00 -16°C° 0.1 mm 3 mps 741 mmHg 94%

    29 January, Tuesday

    Time Temperature Precipitation Wind Pressure Humidity
    00:00 -16°C° 0.2 mm 3 mps 741 mmHg 94%
    01:00 -15°C° 0.2 mm 3 mps 741 mmHg 94%
    02:00 -14°C° 0.2 mm 3 mps 741 mmHg 94%
    03:00 -14°C° 0 mm 3 mps 741 mmHg 94%
    04:00 -13°C° 0 mm 3 mps 740 mmHg 94%
    05:00 -12°C° 0 mm 3 mps 740 mmHg 94%
    06:00 -12°C° 0 mm 3 mps 740 mmHg 94%
    07:00 -10°C° 0 mm 3 mps 740 mmHg 94%
    08:00 -10°C° 0 mm 3 mps 740 mmHg 95%
    09:00 -8°C° 0 mm 3 mps 740 mmHg 94%
    10:00 -7°C° 0 mm 3 mps 740 mmHg 94%
    11:00 -7°C° 0 mm 4 mps 740 mmHg 93%
    12:00 -5°C° 0.1 mm 4 mps 740 mmHg 92%
    13:00 -4°C° 0.1 mm 3 mps 740 mmHg 92%
    14:00 -1°C° 0.1 mm 3 mps 741 mmHg 91%
    15:00 -1°C° 0.1 mm 3 mps 741 mmHg 92%
    16:00 -1°C° 0.1 mm 3 mps 741 mmHg 92%
    17:00 -1°C° 0.1 mm 3 mps 741 mmHg 92%
    18:00 -1°C° 0.1 mm 3 mps 741 mmHg 93%
    19:00 -2°C° 0.1 mm 4 mps 741 mmHg 93%
    20:00 -2°C° 0.1 mm 4 mps 741 mmHg 93%
    21:00 -2°C° 0.1 mm 4 mps 741 mmHg 93%
    22:00 -1°C° 0.1 mm 3 mps 741 mmHg 93%
    23:00 -1°C° 0.1 mm 3 mps 741 mmHg 93%
    Show more